EDT,Max TemperatureF,Mean TemperatureF,Min TemperatureF,Max Dew PointF,MeanDew PointF,Min DewpointF,Max Humidity, Mean Humidity, Min Humidity, Max Sea Level PressureIn, Mean Sea Level PressureIn, Min Sea Level PressureIn, Max VisibilityMiles, Mean VisibilityMiles, Min VisibilityMiles, Max Wind SpeedMPH, Mean Wind SpeedMPH, Max Gust SpeedMPH,PrecipitationIn, CloudCover, Events, WindDirDegrees
2013-8-1,78,73,69,72,70,68,100,93,74,30.05,29.90,29.84,10,6,0,15,6,23,1.54,6,Fog-Rain,212
2013-8-2,84,76,69,73,70,66,97,80,55,29.98,29.93,29.84,10,10,7,15,5,18,0.00,0,,244
2013-8-3,84,78,71,74,70,66,97,85,53,29.97,29.95,29.92,10,9,6,7,4,,0.00,1,,226
2013-8-4,82,71,60,69,62,56,97,72,42,29.99,29.92,29.88,10,9,5,14,5,18,0.00,3,,337
2013-8-5,75,68,60,63,56,52,90,63,48,30.10,30.05,30.00,10,10,10,13,6,17,0.00,0,,74
2013-8-6,73,68,64,66,64,62,96,82,73,30.12,30.10,30.05,10,10,9,8,4,16,0.03,5,Rain,208
2013-8-7,78,73,68,72,68,64,96,85,78,30.13,30.11,30.07,10,9,2,8,5,17,0.38,6,Rain,164
2013-8-8,79,76,73,74,72,70,94,86,78,30.09,30.07,30.04,10,10,2,12,7,17,0.00,0,,205
2013-8-9,89,81,73,77,75,73,100,86,65,29.97,29.95,29.88,10,7,1,22,9,37,0.95,4,Rain,237
2013-8-10,84,76,68,74,71,67,97,84,65,30.08,30.02,29.95,10,9,6,9,3,,0.00,2,,18
2013-8-11,78,71,64,72,68,63,97,84,71,30.12,30.08,30.05,10,10,8,5,1,,0.00,5,,102
2013-8-12,82,76,71,75,73,70,100,88,76,30.04,29.99,29.94,10,8,4,8,2,,0.00,4,,152
2013-8-13,86,78,71,78,74,67,100,86,59,29.92,29.81,29.75,10,7,2,14,4,22,0.00,3,,224
2013-8-14,75,66,55,70,57,50,93,69,46,30.08,29.92,29.76,10,10,5,18,8,25,0.02,2,Rain,329
2013-8-15,72,63,54,60,55,52,97,74,51,30.17,30.13,30.08,10,10,10,8,4,,0.00,0,,37
2013-8-16,77,63,51,62,57,50,100,73,57,30.19,30.16,30.13,10,10,10,12,4,,0.00,1,,58
2013-8-17,77,68,60,65,62,59,96,72,61,30.25,30.23,30.17,10,10,10,14,7,22,0.00,7,,69
2013-8-18,73,68,64,70,66,62,100,91,78,30.20,30.16,30.13,10,5,2,16,10,25,0.28,8,Rain,42
2013-8-19,73,68,63,68,65,62,97,88,73,30.17,30.13,30.10,10,9,6,7,4,,0.00,6,,252
2013-8-20,79,74,68,71,69,66,96,86,74,30.18,30.14,30.10,10,9,4,8,3,,0.00,4,,220
2013-8-21,82,72,62,75,68,63,100,92,76,30.22,30.18,30.12,10,5,0,9,2,16,0.00,1,Fog,220
2013-8-22,84,78,71,76,72,69,100,87,65,30.12,30.04,29.94,10,9,3,10,6,21,0.07,4,Rain,206
2013-8-23,80,74,69,72,67,61,93,80,60,30.08,29.98,29.91,10,10,7,13,7,22,0.00,3,,358
2013-8-24,78,70,61,67,63,59,97,78,62,30.33,30.23,30.09,10,10,10,12,6,20,0.00,1,,34
2013-8-25,75,65,55,60,56,53,93,64,50,30.41,30.35,30.30,10,10,10,10,7,,0.00,0,,91
2013-8-26,82,66,51,66,59,49,100,74,54,30.31,30.18,30.03,10,10,10,12,4,18,0.00,0,,236
2013-8-27,89,78,69,72,68,62,97,75,57,30.01,29.93,29.89,10,9,4,13,8,,0.00,1,,271
2013-8-28,86,76,66,75,70,66,100,92,65,29.92,29.87,29.84,10,3,0,9,1,,0.57,3,Fog-Rain,197
2013-8-29,78,74,69,72,70,66,100,90,71,30.02,29.90,29.82,10,7,0,16,5,26,0.00,5,Fog,46
2013-8-30,79,72,66,69,67,64,97,85,69,30.06,30.01,29.95,10,10,7,10,4,18,0.00,4,,148
2013-8-31,82,77,72,75,72,68,93,85,74,29.96,29.91,29.86,10,10,10,15,8,21,0.00,0,,215